Location: Plainartige
(45.6866°N, 1.7993°E)
Time: 16:35:38
(UTC+00:00)

Envisat - Pass Details

Date: 22 January 2022
Orbit: 764 x 765 km, 98.2° (Epoch: 19 May)

Event Time Altitude Azimuth Distance (km) Brightness Sun altitude
Rises 06:45:13 0° 355° (N) 3,241 6.0 -7.1°
Reaches altitude 10° 06:49:16 10° 323° (NW) 2,309 5.0 -6.5°
Maximum altitude 06:50:47 11° 305° (NW) 2,215 4.8 -6.2°
Drops below altitude 10° 06:52:18 10° 288° (WNW) 2,305 4.8 -6.0°
Sets 06:56:21 0° 255° (WSW) 3,226 5.7 -5.3°
